Year,Month,Day,Hour,Minute,Value (Times are PST for temperature in C)
2010,07,18,00,00,18.40
2010,07,18,00,01,18.40
2010,07,18,00,02,18.40
2010,07,18,00,03,18.40
2010,07,18,00,04,18.50
2010,07,18,00,05,18.50
2010,07,18,00,06,18.50
2010,07,18,00,07,18.50
2010,07,18,00,08,18.50
2010,07,18,00,09,18.60
2010,07,18,00,10,18.60
2010,07,18,00,11,18.60
2010,07,18,00,12,18.60
2010,07,18,00,13,18.60
2010,07,18,00,14,18.60
2010,07,18,00,15,18.60
2010,07,18,00,16,18.60
2010,07,18,00,17,18.60
2010,07,18,00,18,18.60
2010,07,18,00,19,18.60
2010,07,18,00,20,18.50
2010,07,18,00,21,18.50
2010,07,18,00,22,18.50
2010,07,18,00,23,18.40
2010,07,18,00,24,18.40
2010,07,18,00,25,18.40
2010,07,18,00,26,18.40
2010,07,18,00,27,18.40
2010,07,18,00,28,18.40
2010,07,18,00,29,18.40
2010,07,18,00,30,18.40
2010,07,18,00,31,18.40
2010,07,18,00,32,18.40
2010,07,18,00,33,18.40
2010,07,18,00,34,18.40
2010,07,18,00,35,18.40
2010,07,18,00,36,18.40
2010,07,18,00,37,18.40
2010,07,18,00,38,18.40
2010,07,18,00,39,18.30
2010,07,18,00,40,18.30
2010,07,18,00,41,18.30
2010,07,18,00,42,18.20
2010,07,18,00,43,18.20
2010,07,18,00,44,18.20
2010,07,18,00,45,18.10
2010,07,18,00,46,18.10
2010,07,18,00,47,18.10
2010,07,18,00,48,18.10
2010,07,18,00,49,18.00
2010,07,18,00,50,18.00
2010,07,18,00,51,18.00
2010,07,18,00,52,17.90
2010,07,18,00,53,17.90
2010,07,18,00,54,17.90
2010,07,18,00,55,17.80
2010,07,18,00,56,17.80
2010,07,18,00,57,17.70
2010,07,18,00,58,17.70
2010,07,18,00,59,17.70
2010,07,18,01,00,17.60
2010,07,18,01,01,17.60
2010,07,18,01,02,17.50
2010,07,18,01,03,17.50
2010,07,18,01,04,17.40
2010,07,18,01,05,17.40
2010,07,18,01,06,17.40
2010,07,18,01,07,17.40
2010,07,18,01,08,17.40
2010,07,18,01,09,17.30
2010,07,18,01,10,17.30
2010,07,18,01,11,17.30
2010,07,18,01,12,17.30
2010,07,18,01,13,17.20
2010,07,18,01,14,17.20
2010,07,18,01,15,17.20
2010,07,18,01,16,17.20
2010,07,18,01,17,17.20
2010,07,18,01,18,17.10
2010,07,18,01,19,17.10
2010,07,18,01,20,17.10
2010,07,18,01,21,17.10
2010,07,18,01,22,17.10
2010,07,18,01,23,17.10
2010,07,18,01,24,17.10
2010,07,18,01,25,17.10
2010,07,18,01,26,17.00
2010,07,18,01,27,17.00
2010,07,18,01,28,17.00
2010,07,18,01,29,17.00
2010,07,18,01,30,17.00
2010,07,18,01,31,17.00
2010,07,18,01,32,17.00
2010,07,18,01,33,16.90
2010,07,18,01,34,16.90
2010,07,18,01,35,16.90
2010,07,18,01,36,16.90
2010,07,18,01,37,16.90
2010,07,18,01,38,16.90
2010,07,18,01,39,16.90
2010,07,18,01,40,16.90
2010,07,18,01,41,16.90
2010,07,18,01,42,16.90
2010,07,18,01,43,16.90
2010,07,18,01,44,16.90
2010,07,18,01,45,16.90
2010,07,18,01,46,16.80
2010,07,18,01,47,16.80
2010,07,18,01,48,16.80
2010,07,18,01,49,16.80
2010,07,18,01,50,16.80
2010,07,18,01,51,16.80
2010,07,18,01,52,16.70
2010,07,18,01,53,16.70
2010,07,18,01,54,16.70
2010,07,18,01,55,16.70
2010,07,18,01,56,16.70
2010,07,18,01,57,16.70
2010,07,18,01,58,16.70
2010,07,18,01,59,16.70
2010,07,18,02,00,16.60
2010,07,18,02,01,16.60
2010,07,18,02,02,16.60
2010,07,18,02,03,16.60
2010,07,18,02,04,16.60
2010,07,18,02,05,16.60
2010,07,18,02,06,16.50
2010,07,18,02,07,16.50
2010,07,18,02,08,16.40
2010,07,18,02,09,16.40
2010,07,18,02,10,16.40
2010,07,18,02,11,16.40
2010,07,18,02,12,16.40
2010,07,18,02,13,16.40
2010,07,18,02,14,16.40
2010,07,18,02,15,16.40
2010,07,18,02,16,16.40
2010,07,18,02,17,16.40
2010,07,18,02,18,16.40
2010,07,18,02,19,16.40
2010,07,18,02,20,16.40
2010,07,18,02,21,16.40
2010,07,18,02,22,16.40
2010,07,18,02,23,16.40
2010,07,18,02,24,16.40
2010,07,18,02,25,16.30
2010,07,18,02,26,16.30
2010,07,18,02,27,16.30
2010,07,18,02,28,16.30
2010,07,18,02,29,16.30
2010,07,18,02,30,16.30
2010,07,18,02,31,16.30
2010,07,18,02,32,16.30
2010,07,18,02,33,16.20
2010,07,18,02,34,16.20
2010,07,18,02,35,16.20
2010,07,18,02,36,16.20
2010,07,18,02,37,16.20
2010,07,18,02,38,16.20
2010,07,18,02,39,16.30
2010,07,18,02,40,16.30
2010,07,18,02,41,16.30
2010,07,18,02,42,16.30
2010,07,18,02,43,16.30
2010,07,18,02,44,16.30
2010,07,18,02,45,16.30
2010,07,18,02,46,16.30
2010,07,18,02,47,16.30
2010,07,18,02,48,16.40
2010,07,18,02,49,16.40
2010,07,18,02,50,16.40
2010,07,18,02,51,16.30
2010,07,18,02,52,16.30
2010,07,18,02,53,16.30
2010,07,18,02,54,16.30
2010,07,18,02,55,16.30
2010,07,18,02,56,16.30
2010,07,18,02,57,16.30
2010,07,18,02,58,16.30
2010,07,18,02,59,16.30
2010,07,18,03,00,16.30
2010,07,18,03,01,16.30
2010,07,18,03,02,16.30
2010,07,18,03,06,16.30
2010,07,18,03,07,16.30
2010,07,18,03,08,16.30
2010,07,18,03,09,16.30
2010,07,18,03,10,16.20
2010,07,18,03,11,16.20
2010,07,18,03,12,16.20
2010,07,18,03,13,16.20
2010,07,18,03,14,16.20
2010,07,18,03,15,16.20
2010,07,18,03,16,16.10
2010,07,18,03,17,16.10
2010,07,18,03,18,16.10
2010,07,18,03,19,16.00
2010,07,18,03,20,16.00
2010,07,18,03,21,15.90
2010,07,18,03,22,15.90
2010,07,18,03,23,15.90
2010,07,18,03,24,15.90
2010,07,18,03,25,15.80
2010,07,18,03,26,15.80
2010,07,18,03,27,15.80
2010,07,18,03,28,15.80
2010,07,18,03,29,15.80
2010,07,18,03,30,15.70
2010,07,18,03,31,15.70
2010,07,18,03,32,15.70
2010,07,18,03,33,15.70
2010,07,18,03,34,15.70
2010,07,18,03,35,15.70
2010,07,18,03,36,15.60
2010,07,18,03,37,15.60
2010,07,18,03,38,15.60
2010,07,18,03,39,15.60
2010,07,18,03,40,15.60
2010,07,18,03,41,15.60
2010,07,18,03,42,15.60
2010,07,18,03,43,15.60
2010,07,18,03,44,15.60
2010,07,18,03,45,15.60
2010,07,18,03,46,15.60
2010,07,18,03,47,15.60
2010,07,18,03,48,15.60
2010,07,18,03,49,15.60
2010,07,18,03,50,15.70
2010,07,18,03,51,15.70
2010,07,18,03,52,15.70
2010,07,18,03,53,15.70
2010,07,18,03,54,15.70
2010,07,18,03,55,15.80
2010,07,18,03,56,15.80
2010,07,18,03,57,15.80
2010,07,18,03,58,15.80
2010,07,18,03,59,15.80
2010,07,18,04,00,15.80
2010,07,18,04,01,15.80
2010,07,18,04,02,15.80
2010,07,18,04,03,15.80
2010,07,18,04,04,15.80
2010,07,18,04,05,15.90
2010,07,18,04,06,15.90
2010,07,18,04,07,15.90
2010,07,18,04,08,15.90
2010,07,18,04,09,15.90
2010,07,18,04,10,15.90
2010,07,18,04,11,15.90
2010,07,18,04,12,15.90
2010,07,18,04,13,16.00
2010,07,18,04,14,16.00
2010,07,18,04,15,15.90
2010,07,18,04,16,15.90
2010,07,18,04,17,15.90
2010,07,18,04,18,16.00
2010,07,18,04,19,15.90
2010,07,18,04,20,15.90
2010,07,18,04,21,15.90
2010,07,18,04,22,15.90
2010,07,18,04,23,15.90
2010,07,18,04,24,15.90
2010,07,18,04,25,15.90
2010,07,18,04,26,15.90
2010,07,18,04,27,15.90
2010,07,18,04,28,15.90
2010,07,18,04,29,15.90
2010,07,18,04,30,15.90
2010,07,18,04,31,15.80
2010,07,18,04,32,15.80
2010,07,18,04,33,15.80
2010,07,18,04,34,15.80
2010,07,18,04,35,15.80
2010,07,18,04,36,15.80
2010,07,18,04,37,15.80
2010,07,18,04,38,15.80
2010,07,18,04,39,15.70
2010,07,18,04,40,15.70
2010,07,18,04,41,15.70
2010,07,18,04,42,15.70
2010,07,18,04,43,15.70
2010,07,18,04,44,15.70
2010,07,18,04,45,15.70
2010,07,18,04,46,15.70
2010,07,18,04,47,15.70
2010,07,18,04,48,15.60
2010,07,18,04,49,15.60
2010,07,18,04,50,15.60
2010,07,18,04,51,15.60
2010,07,18,04,52,15.60
2010,07,18,04,53,15.60
2010,07,18,04,54,15.60
2010,07,18,04,55,15.60
2010,07,18,04,56,15.60
2010,07,18,04,57,15.60
2010,07,18,04,58,15.50
2010,07,18,04,59,15.50
2010,07,18,05,00,15.50
2010,07,18,05,01,15.50
2010,07,18,05,02,15.50
2010,07,18,05,03,15.50
2010,07,18,05,04,15.50
2010,07,18,05,05,15.50
2010,07,18,05,06,15.50
2010,07,18,05,07,15.50
2010,07,18,05,08,15.50
2010,07,18,05,09,15.50
2010,07,18,05,10,15.50
2010,07,18,05,11,15.50
2010,07,18,05,12,15.50
2010,07,18,05,13,15.50
2010,07,18,05,14,15.50
2010,07,18,05,15,15.40
2010,07,18,05,16,15.40
2010,07,18,05,17,15.40
2010,07,18,05,18,15.40
2010,07,18,05,19,15.40
2010,07,18,05,20,15.40
2010,07,18,05,21,15.40
2010,07,18,05,22,15.40
2010,07,18,05,23,15.40
2010,07,18,05,24,15.40
2010,07,18,05,25,15.40
2010,07,18,05,26,15.40
2010,07,18,05,27,15.40
2010,07,18,05,28,15.40
2010,07,18,05,29,15.30
2010,07,18,05,30,15.30
2010,07,18,05,31,15.30
2010,07,18,05,32,15.30
2010,07,18,05,33,15.30
2010,07,18,05,34,15.30
2010,07,18,05,35,15.30
2010,07,18,05,36,15.20
2010,07,18,05,37,15.20
2010,07,18,05,38,15.20
2010,07,18,05,39,15.20
2010,07,18,05,40,15.10
2010,07,18,05,41,15.10
2010,07,18,05,42,15.10
2010,07,18,05,43,15.10
2010,07,18,05,44,15.00
2010,07,18,05,45,15.00
2010,07,18,05,46,15.00
2010,07,18,05,47,15.00
2010,07,18,05,48,15.00
2010,07,18,05,49,15.00
2010,07,18,05,50,15.00
2010,07,18,05,51,15.00
2010,07,18,05,52,15.00
2010,07,18,05,53,15.00
2010,07,18,05,54,15.00
2010,07,18,05,55,15.00
2010,07,18,05,56,15.00
2010,07,18,05,57,15.00
2010,07,18,05,58,15.00
2010,07,18,05,59,15.00
2010,07,18,06,00,15.00
2010,07,18,06,01,15.00
2010,07,18,06,02,15.00
2010,07,18,06,03,15.00
2010,07,18,06,04,15.00
2010,07,18,06,05,15.00
2010,07,18,06,06,15.00
2010,07,18,06,07,15.00
2010,07,18,06,08,15.00
2010,07,18,06,09,15.00
2010,07,18,06,10,15.00
2010,07,18,06,11,15.00
2010,07,18,06,12,15.00
2010,07,18,06,13,15.00
2010,07,18,06,14,15.00
2010,07,18,06,15,15.00
2010,07,18,06,16,15.00
2010,07,18,06,17,15.00
2010,07,18,06,18,15.00
2010,07,18,06,19,15.00
2010,07,18,06,20,15.00
2010,07,18,06,21,15.00
2010,07,18,06,22,15.00
2010,07,18,06,23,15.00
2010,07,18,06,24,15.00
2010,07,18,06,25,15.10
2010,07,18,06,26,15.10
2010,07,18,06,27,15.20
2010,07,18,06,28,15.20
2010,07,18,06,29,15.30
2010,07,18,06,30,15.30
2010,07,18,06,31,15.40
2010,07,18,06,32,15.40
2010,07,18,06,33,15.50
2010,07,18,06,34,15.50
2010,07,18,06,35,15.50
2010,07,18,06,36,15.60
2010,07,18,06,37,15.60
2010,07,18,06,38,15.70
2010,07,18,06,39,15.70
2010,07,18,06,40,15.80
2010,07,18,06,41,15.70
2010,07,18,06,42,15.70
2010,07,18,06,43,15.70
2010,07,18,06,44,15.70
2010,07,18,06,45,15.80
2010,07,18,06,46,15.80
2010,07,18,06,47,15.80
2010,07,18,06,48,15.90
2010,07,18,06,49,15.90
2010,07,18,06,50,16.00
2010,07,18,06,51,16.00
2010,07,18,06,52,16.10
2010,07,18,06,53,16.20
2010,07,18,06,54,16.20
2010,07,18,06,55,16.30
2010,07,18,06,56,16.40
2010,07,18,06,57,16.50
2010,07,18,06,58,16.50
2010,07,18,06,59,16.60
2010,07,18,07,00,16.60
2010,07,18,07,01,16.60
2010,07,18,07,02,16.60
2010,07,18,07,03,16.60
2010,07,18,07,04,16.60
2010,07,18,07,05,16.60
2010,07,18,07,06,16.60
2010,07,18,07,07,16.60
2010,07,18,07,08,16.60
2010,07,18,07,09,16.60
2010,07,18,07,10,16.60
2010,07,18,07,11,16.70
2010,07,18,07,12,16.70
2010,07,18,07,13,16.60
2010,07,18,07,14,16.60
2010,07,18,07,15,16.60
2010,07,18,07,16,16.60
2010,07,18,07,17,16.60
2010,07,18,07,18,16.60
2010,07,18,07,19,16.60
2010,07,18,07,20,16.60
2010,07,18,07,21,16.60
2010,07,18,07,22,16.60
2010,07,18,07,23,16.60
2010,07,18,07,24,16.60
2010,07,18,07,25,16.60
2010,07,18,07,26,16.70
2010,07,18,07,27,16.70
2010,07,18,07,28,16.70
2010,07,18,07,29,16.70
2010,07,18,07,30,16.80
2010,07,18,07,31,16.80
2010,07,18,07,32,16.80
2010,07,18,07,33,16.90
2010,07,18,07,34,16.90
2010,07,18,07,35,16.90
2010,07,18,07,36,16.90
2010,07,18,07,37,17.00
2010,07,18,07,38,17.00
2010,07,18,07,39,17.00
2010,07,18,07,40,17.10
2010,07,18,07,41,17.10
2010,07,18,07,42,17.10
2010,07,18,07,43,17.20
2010,07,18,07,44,17.20
2010,07,18,07,45,17.20
2010,07,18,07,46,17.30
2010,07,18,07,47,17.40
2010,07,18,07,48,17.40
2010,07,18,07,49,17.30
2010,07,18,07,50,17.20
2010,07,18,07,51,17.20
2010,07,18,07,52,17.20
2010,07,18,07,53,17.20
2010,07,18,07,54,17.20
2010,07,18,07,55,17.20
2010,07,18,07,56,17.30
2010,07,18,07,57,17.40
2010,07,18,07,58,17.50
2010,07,18,07,59,17.60
2010,07,18,08,00,17.80
2010,07,18,08,01,17.80
2010,07,18,08,02,17.90
2010,07,18,08,03,18.00
2010,07,18,08,04,18.00
2010,07,18,08,05,18.10
2010,07,18,08,06,18.10
2010,07,18,08,07,18.10
2010,07,18,08,08,18.00
2010,07,18,08,09,17.90
2010,07,18,08,10,17.90
2010,07,18,08,11,17.90
2010,07,18,08,12,17.80
2010,07,18,08,13,17.80
2010,07,18,08,14,17.80
2010,07,18,08,15,17.80
2010,07,18,08,16,17.80
2010,07,18,08,17,17.80
2010,07,18,08,18,17.80
2010,07,18,08,19,17.80
2010,07,18,08,20,17.80
2010,07,18,08,21,17.80
2010,07,18,08,22,17.80
2010,07,18,08,23,17.80
2010,07,18,08,24,17.80
2010,07,18,08,25,17.80
2010,07,18,08,26,17.80
2010,07,18,08,27,17.80
2010,07,18,08,28,17.80
2010,07,18,08,29,17.80
2010,07,18,08,30,17.80
2010,07,18,08,31,17.80
2010,07,18,08,32,17.80
2010,07,18,08,33,17.90
2010,07,18,08,34,17.90
2010,07,18,08,35,17.90
2010,07,18,08,36,17.90
2010,07,18,08,37,17.90
2010,07,18,08,38,18.00
2010,07,18,08,39,18.00
2010,07,18,08,40,18.10
2010,07,18,08,41,18.10
2010,07,18,08,42,18.10
2010,07,18,08,43,18.20
2010,07,18,08,44,18.20
2010,07,18,08,45,18.20
2010,07,18,08,46,18.30
2010,07,18,08,47,18.30
2010,07,18,08,48,18.30
2010,07,18,08,49,18.30
2010,07,18,08,50,18.30
2010,07,18,08,51,18.30
2010,07,18,08,52,18.30
2010,07,18,08,53,18.30
2010,07,18,08,54,18.30
2010,07,18,08,55,18.30
2010,07,18,08,56,18.30
2010,07,18,08,57,18.40
2010,07,18,08,58,18.50
2010,07,18,08,59,18.60
2010,07,18,09,00,18.60
2010,07,18,09,01,18.70
2010,07,18,09,02,18.80
2010,07,18,09,03,18.80
2010,07,18,09,04,18.90
2010,07,18,09,05,18.90
2010,07,18,09,06,18.90
2010,07,18,09,07,19.00
2010,07,18,09,08,19.00
2010,07,18,09,09,19.10
2010,07,18,09,10,19.10
2010,07,18,09,11,19.10
2010,07,18,09,12,19.10
2010,07,18,09,13,19.10
2010,07,18,09,14,19.10
2010,07,18,09,15,19.20
2010,07,18,09,16,19.20
2010,07,18,09,17,19.10
2010,07,18,09,18,19.10
2010,07,18,09,19,19.10
2010,07,18,09,20,19.00
2010,07,18,09,21,19.00
2010,07,18,09,22,19.10
2010,07,18,09,23,19.10
2010,07,18,09,24,19.10
2010,07,18,09,25,19.10
2010,07,18,09,26,19.10
2010,07,18,09,27,19.10
2010,07,18,09,28,19.10
2010,07,18,09,29,19.10
2010,07,18,09,30,19.20
2010,07,18,09,31,19.20
2010,07,18,09,32,19.20
2010,07,18,09,33,19.30
2010,07,18,09,34,19.30
2010,07,18,09,35,19.20
2010,07,18,09,36,19.20
2010,07,18,09,37,19.20
2010,07,18,09,38,19.20
2010,07,18,09,39,19.30
2010,07,18,09,40,19.30
2010,07,18,09,41,19.40
2010,07,18,09,42,19.50
2010,07,18,09,43,19.50
2010,07,18,09,44,19.50
2010,07,18,09,45,19.50
2010,07,18,09,46,19.50
2010,07,18,09,47,19.50
2010,07,18,09,48,19.60
2010,07,18,09,49,19.60
2010,07,18,09,50,19.70
2010,07,18,09,51,19.70
2010,07,18,09,52,19.70
2010,07,18,09,53,19.80
2010,07,18,09,54,19.80
2010,07,18,09,55,19.90
2010,07,18,09,56,19.90
2010,07,18,09,57,19.90
2010,07,18,09,58,19.90
2010,07,18,09,59,19.90
2010,07,18,10,00,20.00
2010,07,18,10,01,20.00
2010,07,18,10,02,20.10
2010,07,18,10,03,20.10
2010,07,18,10,04,20.20
2010,07,18,10,05,20.10
2010,07,18,10,06,20.10
2010,07,18,10,07,20.10
2010,07,18,10,08,20.10
2010,07,18,10,09,20.10
2010,07,18,10,10,20.20
2010,07,18,10,11,20.30
2010,07,18,10,12,20.30
2010,07,18,10,13,20.40
2010,07,18,10,14,20.50
2010,07,18,10,15,20.50
2010,07,18,10,16,20.50
2010,07,18,10,17,20.50
2010,07,18,10,18,20.60
2010,07,18,10,19,20.70
2010,07,18,10,20,20.70
2010,07,18,10,21,20.80
2010,07,18,10,22,20.80
2010,07,18,10,23,20.80
2010,07,18,10,24,20.70
2010,07,18,10,25,20.80
2010,07,18,10,26,20.80
2010,07,18,10,27,20.80
2010,07,18,10,28,20.90
2010,07,18,10,29,20.90
2010,07,18,10,30,20.90
2010,07,18,10,31,20.90
2010,07,18,10,32,20.90
2010,07,18,10,33,20.90
2010,07,18,10,34,20.90
2010,07,18,10,35,20.90
2010,07,18,10,36,21.00
2010,07,18,10,37,21.00
2010,07,18,10,38,21.00
2010,07,18,10,39,21.00
2010,07,18,10,40,21.00
2010,07,18,10,41,21.00
2010,07,18,10,42,21.10
2010,07,18,10,43,21.10
2010,07,18,10,44,21.20
2010,07,18,10,45,21.20
2010,07,18,10,46,21.20
2010,07,18,10,47,21.20
2010,07,18,10,48,21.10
2010,07,18,10,49,21.20
2010,07,18,10,50,21.20
2010,07,18,10,51,21.30
2010,07,18,10,52,21.30
2010,07,18,10,53,21.30
2010,07,18,10,54,21.30
2010,07,18,10,55,21.40
2010,07,18,10,56,21.40
2010,07,18,10,57,21.40
2010,07,18,10,58,21.50
2010,07,18,10,59,21.60
2010,07,18,11,00,21.60
2010,07,18,11,01,21.70
2010,07,18,11,02,21.70
2010,07,18,11,03,21.80
2010,07,18,11,04,21.80
2010,07,18,11,05,21.80
2010,07,18,11,06,21.80
2010,07,18,11,07,21.80
2010,07,18,11,08,21.90
2010,07,18,11,09,21.90
2010,07,18,11,10,21.90
2010,07,18,11,11,22.00
2010,07,18,11,12,22.00
2010,07,18,11,13,22.10
2010,07,18,11,14,22.20
2010,07,18,11,15,22.20
2010,07,18,11,16,22.40
2010,07,18,11,17,22.50
2010,07,18,11,18,22.50
2010,07,18,11,19,22.50
2010,07,18,11,20,22.50
2010,07,18,11,21,22.40
2010,07,18,11,22,22.40
2010,07,18,11,23,22.30
2010,07,18,11,24,22.30
2010,07,18,11,25,22.40
2010,07,18,11,26,22.60
2010,07,18,11,27,22.80
2010,07,18,11,28,22.80
2010,07,18,11,29,23.00
2010,07,18,11,30,23.00
2010,07,18,11,31,23.10
2010,07,18,11,32,23.20
2010,07,18,11,33,23.10
2010,07,18,11,34,23.20
2010,07,18,11,35,23.20
2010,07,18,11,36,23.30
2010,07,18,11,37,23.30
2010,07,18,11,38,23.20
2010,07,18,11,39,23.20
2010,07,18,11,40,23.20
2010,07,18,11,41,23.10
2010,07,18,11,42,23.00
2010,07,18,11,43,22.90
2010,07,18,11,44,22.80
2010,07,18,11,45,22.80
2010,07,18,11,46,22.70
2010,07,18,11,47,22.70
2010,07,18,11,48,22.60
2010,07,18,11,49,22.40
2010,07,18,11,50,22.30
2010,07,18,11,51,22.30
2010,07,18,11,52,22.20
2010,07,18,11,53,22.20
2010,07,18,11,54,22.20
2010,07,18,11,55,22.20
2010,07,18,11,56,22.20
2010,07,18,11,57,22.30
2010,07,18,11,58,22.20
2010,07,18,11,59,22.10
2010,07,18,12,00,22.00
2010,07,18,12,01,21.90
2010,07,18,12,02,21.90
2010,07,18,12,03,21.90
2010,07,18,12,04,22.00
2010,07,18,12,05,22.00
2010,07,18,12,06,21.90
2010,07,18,12,07,21.90
2010,07,18,12,08,21.80
2010,07,18,12,09,21.80
2010,07,18,12,10,21.80
2010,07,18,12,11,21.90
2010,07,18,12,12,22.00
2010,07,18,12,13,22.10
2010,07,18,12,14,22.20
2010,07,18,12,15,22.30
2010,07,18,12,16,22.30
2010,07,18,12,17,22.20
2010,07,18,12,18,22.10
2010,07,18,12,19,22.00
2010,07,18,12,20,22.00
2010,07,18,12,21,22.00
2010,07,18,12,22,22.10
2010,07,18,12,23,22.10
2010,07,18,12,24,22.20
2010,07,18,12,25,22.20
2010,07,18,12,26,22.30
2010,07,18,12,27,22.30
2010,07,18,12,28,22.40
2010,07,18,12,29,22.40
2010,07,18,12,30,22.40
2010,07,18,12,31,22.40
2010,07,18,12,32,22.40
2010,07,18,12,33,22.50
2010,07,18,12,34,22.50
2010,07,18,12,35,22.50
2010,07,18,12,36,22.60
2010,07,18,12,37,22.70
2010,07,18,12,38,22.70
2010,07,18,12,39,22.70
2010,07,18,12,40,22.70
2010,07,18,12,41,22.70
2010,07,18,12,42,22.60
2010,07,18,12,43,22.60
2010,07,18,12,44,22.60
2010,07,18,12,45,22.60
2010,07,18,12,46,22.70
2010,07,18,12,47,22.70
2010,07,18,12,48,22.80
2010,07,18,12,49,22.80
2010,07,18,12,50,22.80
2010,07,18,12,51,22.80
2010,07,18,12,52,22.80
2010,07,18,12,53,22.80
2010,07,18,12,54,22.90
2010,07,18,12,55,22.90
2010,07,18,12,56,22.90
2010,07,18,12,57,22.90
2010,07,18,12,58,22.90
2010,07,18,12,59,22.90
2010,07,18,13,00,22.90
2010,07,18,13,01,22.80
2010,07,18,13,02,22.70
2010,07,18,13,03,22.60
2010,07,18,13,04,22.70
2010,07,18,13,05,22.70
2010,07,18,13,06,22.90
2010,07,18,13,07,23.00
2010,07,18,13,08,23.10
2010,07,18,13,09,23.10
2010,07,18,13,10,23.10
2010,07,18,13,11,23.10
2010,07,18,13,12,23.20
2010,07,18,13,13,23.20
2010,07,18,13,14,23.30
2010,07,18,13,15,23.30
2010,07,18,13,16,23.30
2010,07,18,13,17,23.20
2010,07,18,13,18,23.10
2010,07,18,13,19,23.00
2010,07,18,13,20,22.90
2010,07,18,13,21,22.90
2010,07,18,13,22,23.00
2010,07,18,13,23,23.00
2010,07,18,13,24,23.00
2010,07,18,13,25,23.00
2010,07,18,13,26,22.90
2010,07,18,13,27,22.80
2010,07,18,13,28,22.70
2010,07,18,13,29,22.60
2010,07,18,13,30,22.50
2010,07,18,13,31,22.50
2010,07,18,13,32,22.60
2010,07,18,13,33,22.80
2010,07,18,13,34,22.90
2010,07,18,13,35,23.00
2010,07,18,13,36,23.10
2010,07,18,13,37,23.10
2010,07,18,13,38,23.20
2010,07,18,13,39,23.10
2010,07,18,13,40,23.00
2010,07,18,13,41,22.60
2010,07,18,13,42,22.40
2010,07,18,13,43,22.00
2010,07,18,13,44,21.70
2010,07,18,13,45,21.60
2010,07,18,13,46,21.50
2010,07,18,13,47,21.40
2010,07,18,13,48,21.20
2010,07,18,13,49,21.10
2010,07,18,13,50,21.00
2010,07,18,13,51,20.90
2010,07,18,13,52,20.90
2010,07,18,13,53,21.10
2010,07,18,13,54,21.20
2010,07,18,13,55,21.10
2010,07,18,13,56,21.00
2010,07,18,13,57,21.10
2010,07,18,13,58,21.20
2010,07,18,13,59,21.30
2010,07,18,14,00,21.50
2010,07,18,14,01,21.60
2010,07,18,14,02,21.60
2010,07,18,14,03,21.60
2010,07,18,14,04,21.60
2010,07,18,14,05,21.60
2010,07,18,14,06,21.60
2010,07,18,14,07,21.60
2010,07,18,14,08,21.70
2010,07,18,14,09,21.60
2010,07,18,14,10,21.50
2010,07,18,14,11,21.40
2010,07,18,14,12,21.20
2010,07,18,14,13,21.10
2010,07,18,14,14,21.10
2010,07,18,14,15,21.20
2010,07,18,14,16,21.40
2010,07,18,14,17,21.60
2010,07,18,14,18,21.80
2010,07,18,14,19,21.80
2010,07,18,14,20,21.80
2010,07,18,14,21,21.90
2010,07,18,14,22,22.00
2010,07,18,14,23,22.10
2010,07,18,14,24,22.20
2010,07,18,14,25,22.20
2010,07,18,14,26,22.20
2010,07,18,14,27,22.20
2010,07,18,14,28,22.20
2010,07,18,14,29,22.00
2010,07,18,14,30,21.90
2010,07,18,14,31,21.80
2010,07,18,14,32,21.90
2010,07,18,14,33,22.00
2010,07,18,14,34,21.90
2010,07,18,14,35,21.70
2010,07,18,14,36,21.60
2010,07,18,14,37,21.50
2010,07,18,14,38,21.40
2010,07,18,14,39,21.40
2010,07,18,14,40,21.30
2010,07,18,14,41,21.30
2010,07,18,14,42,21.20
2010,07,18,14,43,21.20
2010,07,18,14,44,21.30
2010,07,18,14,45,21.40
2010,07,18,14,46,21.60
2010,07,18,14,47,21.80
2010,07,18,14,48,22.10
2010,07,18,14,49,22.10
2010,07,18,14,50,22.00
2010,07,18,14,51,21.70
2010,07,18,14,52,21.60
2010,07,18,14,53,21.60
2010,07,18,14,54,21.60
2010,07,18,14,55,21.60
2010,07,18,14,56,21.60
2010,07,18,14,57,21.60
2010,07,18,14,58,21.60
2010,07,18,14,59,21.80
2010,07,18,15,00,21.80
2010,07,18,15,01,21.70
2010,07,18,15,02,21.80
2010,07,18,15,03,21.90
2010,07,18,15,04,22.00
2010,07,18,15,05,22.10
2010,07,18,15,06,22.20
2010,07,18,15,07,22.30
2010,07,18,15,08,22.20
2010,07,18,15,09,22.20
2010,07,18,15,10,22.20
2010,07,18,15,11,22.30
2010,07,18,15,12,22.20
2010,07,18,15,13,22.10
2010,07,18,15,14,21.90
2010,07,18,15,15,21.80
2010,07,18,15,16,21.90
2010,07,18,15,17,21.90
2010,07,18,15,18,22.00
2010,07,18,15,19,22.10
2010,07,18,15,20,22.20
2010,07,18,15,21,22.20
2010,07,18,15,22,22.30
2010,07,18,15,23,22.40
2010,07,18,15,24,22.40
2010,07,18,15,25,22.50
2010,07,18,15,26,22.50
2010,07,18,15,27,22.60
2010,07,18,15,28,22.70
2010,07,18,15,29,22.60
2010,07,18,15,30,22.60
2010,07,18,15,31,22.60
2010,07,18,15,32,22.40
2010,07,18,15,33,22.40
2010,07,18,15,34,22.30
2010,07,18,15,35,22.10
2010,07,18,15,36,22.10
2010,07,18,15,37,22.10
2010,07,18,15,38,22.20
2010,07,18,15,39,22.40
2010,07,18,15,40,22.50
2010,07,18,15,41,22.60
2010,07,18,15,42,22.70
2010,07,18,15,43,22.50
2010,07,18,15,44,22.40
2010,07,18,15,45,22.30
2010,07,18,15,46,22.10
2010,07,18,15,47,21.90
2010,07,18,15,48,21.80
2010,07,18,15,49,21.70
2010,07,18,15,50,21.60
2010,07,18,15,51,21.60
2010,07,18,15,52,21.60
2010,07,18,15,53,21.50
2010,07,18,15,54,21.40
2010,07,18,15,55,21.30
2010,07,18,15,56,21.30
2010,07,18,15,57,21.30
2010,07,18,15,58,21.30
2010,07,18,15,59,21.40
2010,07,18,16,00,21.40
2010,07,18,16,01,21.40
2010,07,18,16,02,21.50
2010,07,18,16,03,21.70
2010,07,18,16,04,21.60
2010,07,18,16,05,21.30
2010,07,18,16,06,21.20
2010,07,18,16,07,21.10
2010,07,18,16,08,21.10
2010,07,18,16,09,21.10
2010,07,18,16,10,21.20
2010,07,18,16,11,21.40
2010,07,18,16,12,21.40
2010,07,18,16,13,21.30
2010,07,18,16,14,21.30
2010,07,18,16,15,21.50
2010,07,18,16,16,21.80
2010,07,18,16,17,22.00
2010,07,18,16,18,22.20
2010,07,18,16,19,22.40
2010,07,18,16,20,22.30
2010,07,18,16,21,22.20
2010,07,18,16,22,22.10
2010,07,18,16,23,21.90
2010,07,18,16,24,21.80
2010,07,18,16,25,21.80
2010,07,18,16,26,21.80
2010,07,18,16,27,21.80
2010,07,18,16,28,21.80
2010,07,18,16,29,21.80
2010,07,18,16,30,21.80
2010,07,18,16,31,21.90
2010,07,18,16,32,22.10
2010,07,18,16,33,22.20
2010,07,18,16,34,22.20
2010,07,18,16,35,22.20
2010,07,18,16,36,22.00
2010,07,18,16,37,21.90
2010,07,18,16,38,21.80
2010,07,18,16,39,21.70
2010,07,18,16,40,21.80
2010,07,18,16,41,21.70
2010,07,18,16,42,21.60
2010,07,18,16,43,21.70
2010,07,18,16,44,21.80
2010,07,18,16,45,21.80
2010,07,18,16,46,21.80
2010,07,18,16,47,21.70
2010,07,18,16,48,21.60
2010,07,18,16,49,21.60
2010,07,18,16,50,21.60
2010,07,18,16,51,21.70
2010,07,18,16,52,21.80
2010,07,18,16,53,21.90
2010,07,18,16,54,21.90
2010,07,18,16,55,22.10
2010,07,18,16,56,22.10
2010,07,18,16,57,22.10
2010,07,18,16,58,22.10
2010,07,18,16,59,22.20
2010,07,18,17,00,22.20
2010,07,18,17,01,22.10
2010,07,18,17,02,22.10
2010,07,18,17,03,22.10
2010,07,18,17,04,22.00
2010,07,18,17,05,21.90
2010,07,18,17,06,21.80
2010,07,18,17,07,21.80
2010,07,18,17,08,21.70
2010,07,18,17,09,21.80
2010,07,18,17,10,21.80
2010,07,18,17,11,21.90
2010,07,18,17,12,22.00
2010,07,18,17,13,22.00
2010,07,18,17,14,22.10
2010,07,18,17,15,22.20
2010,07,18,17,16,22.20
2010,07,18,17,17,22.30
2010,07,18,17,18,22.30
2010,07,18,17,19,22.30
2010,07,18,17,20,22.40
2010,07,18,17,21,22.40
2010,07,18,17,22,22.40